www.pogodaiklimat.ru

Погода и климат >> Архив погоды >> Пакистан >> Sibi


ПОГОДА в Sibi

  • Прогноз погоды в Sibi
  • Монитор погоды в Sibi
  • Климат города

АРХИВ ПОГОДЫ в Sibi

Время (UTC), дата Ветер
(напр.,м/с)
 
Видим.   Явления Облачность Т
(С)
Тd
(С)
f
(%)
Тe
(С)
Тes
(С)
Комфортность P
(гПа)
Po
(гПа)
Тmin
(С)
Tmax
(С)
R
(мм)
R24
(мм)
S
(см)
00 14.01 штиль 0 4000 м ясно +6.1 +2.3 77 +5 +5 1014.8 998.3
03 14.01 штиль 0 10 км ясно +7.8 +3.3 73 +7 +8 1015.5 999.1 +3.0
06 14.01 штиль 0 10 км ясно +18.3 +0.4 30 +18 +28 1016.7 1000.1
09 14.01 ЮВ 1 10 км ясно +26.7 +5.2 25 +26 +34 жарко 1014.0 1000.0
12 14.01 штиль 0 10 км ясно +26.7 +5.2 25 +26 +26 жарко 1012.9 997.6 +29.0
15 14.01 штиль 0 4000 м ясно +16.7 +7.6 55 +17 +17 1015.1 1000.0
18 14.01 штиль 0 4000 м ясно +12.2 +5.6 64 +12 +12 1017.5 1018.0
21 14.01 штиль 0 4000 м ясно +9.4 +5.1 74 +9 +9 1016.4 1016.0
00 15.01 штиль 0 4000 м ясно +6.7 +2.9 77 +6 +6 1015.8 999.3
03 15.01 штиль 0 10 км ясно +8.9 +3.2 67 +8 +9 1016.9 1000.6 +3.1
06 15.01 штиль 0 10 км ясно +18.3 +0.4 30 +18 +28 1019.3 1019.0
09 15.01 штиль 0 10 км ясно +23.9 +3.8 27 +23 +33 комфорт 1016.7 1025.9
12 15.01 1800 м ясно 1019.5 1020.0
15 15.01 штиль 0 4000 м ясно +16.1 +8.1 59 +16 +16 1015.2 1000.0
18 15.01 СЗ 1 4000 м ясно +11.7 +5.0 63 +12 +12 1016.7 1000.0
21 15.01 штиль 0 4000 м ясно +8.3 +5.2 81 +8 +8 1015.7 1016.0
00 16.01 штиль 0 50 км ?/? 1015.3 1009.9
03 16.01 штиль 0 10 км ясно +7.2 +2.1 70 +7 +7 1015.3 998.8 +3.1
06 16.01 штиль 0 10 км ясно +15.6 +3.5 44 +16 +26 1015.6 1000.0
09 16.01 штиль 0 10 км ясно +23.9 +3.8 27 +23 +33 комфорт 1011.4 1000.0
12 16.01 штиль 0 10 км ясно +23.9 +3.8 27 +23 +24 комфорт 1008.2 992.7 +26.0
15 16.01 штиль 0 4000 м ясно +15.6 +6.3 54 +16 +16 1009.4 993.3
18 16.01 штиль 0 4000 м ясно +11.1 +5.6 69 +11 +11 1011.3 1000.0
21 16.01 штиль 0 4000 м ясно +8.9 +5.7 80 +8 +8 1010.6 1011.0
00 17.01 штиль 0 4000 м ясно +6.1 +2.3 77 +5 +5 1009.9 993.4
03 17.01 штиль 0 10 км ясно +7.2 +2.1 70 +7 +7 1013.3 994.8 +3.0
06 17.01 штиль 0 10 км ясно +17.2 +4.3 42 +17 +27 1014.0 998.6
09 17.01 штиль 0 10 км ясно +25.0 +2.3 23 +24 +34 комфорт 1011.6 1000.0
12 17.01 штиль 0 10 км ясно +25.6 +3.3 24 +25 +25 комфорт 1009.4 994.0 +28.0
15 17.01 штиль 0 4000 м ясно +16.7 +6.3 50 +17 +17 1011.1 996.0
18 17.01 штиль 0 4000 м ясно +10.6 +7.4 81 +10 +10 1013.2 1000.0
21 17.01 штиль 0 4000 м ясно +7.8 +4.6 80 +7 +7 1012.5 1000.0
00 18.01 штиль 0 4000 м ясно +5.0 +2.5 84 +4 +4 1011.4 994.8
03 18.01 штиль 0 10 км ясно +6.7 +2.9 77 +6 +7 1012.1 995.6 +3.0
06 18.01 штиль 0 10 км ясно +18.3 +5.2 42 +18 +29 1014.7 1015.0
09 18.01 штиль 0 10 км ясно +23.9 +5.3 30 +24 +34 комфорт 1011.2 1011.0
12 18.01 штиль 0 10 км ясно +23.9 +5.3 30 +24 +24 комфорт 1009.1 993.6 +26.1
15 18.01 штиль 0 4000 м ясно +15.6 +5.0 49 +16 +16 1011.2 1000.0
18 18.01 штиль 0 4000 м ясно +9.4 +5.1 74 +9 +9 1015.2 1015.0
21 18.01 штиль 0 4000 м ясно +6.7 +2.9 77 +6 +6 1014.8 1015.0
00 19.01 штиль 0 4000 м ясно +4.4 +0.6 76 +4 +4 1014.0 997.4
03 19.01 штиль 0 10 км ясно +6.1 +2.3 77 +5 +6 1015.8 999.3 +2.0
06 19.01 ЮВ 2 10 км ясно +15.6 +6.3 54 +16 +23 1019.1 1019.0
09 19.01 СЗ 2 10 км ясно +23.3 +1.0 23 +22 +30 комфорт 1017.4 1017.0
12 19.01 штиль 0 10 км ясно +23.3 +1.0 23 +22 +23 комфорт 1015.6 1000.1 +25.0
15 19.01 ЮВ 1 4000 м ясно +17.2 +7.0 51 +18 +18 1017.1 1000.0
18 19.01 штиль 0 4000 м ясно +12.8 +5.6 62 +13 +13 1019.0 1000.0
21 19.01 штиль 0 4000 м ясно +9.4 +5.1 74 +9 +9 1018.4 1000.0
00 20.01 штиль 0 4000 м ясно +6.1 +2.3 77 +5 +5 1017.3 1000.8
03 20.01 штиль 0 10 км ясно +7.8 +3.3 73 +7 +8 1018.7 1002.3 +3.1
06 20.01 штиль 0 50 км ?/? 1018.5 1008.8
09 20.01 штиль 0 50 км ?/? 1011.0 1011.0
12 20.01 штиль 0 10 км ясно +23.9 +3.8 27 +23 +24 комфорт 1015.0 999.5 +26.0
15 20.01 ЮВ 1 4000 м ясно +16.7 +6.3 50 +18 +18 1016.6 1000.0
18 20.01 ЮВ 2 4000 м ясно +12.2 +2.9 53 +12 +12 1018.0 1018.0
21 20.01 штиль 0 4000 м ясно +8.4 +3.9 73 +8 +8 1017.1 1000.0

 

Местоположение метеостанции Sibi (Пакистан): широта 29.55 долгота 67.88 высота над уровнем моря 134 м.

В архиве по умолчанию представлена погода в Sibi за последнюю неделю. Архивные данные за месяц целиком и за предыдущие месяцы, начиная с января 2011 года, Вы можете получить, выбрав интересующий диапазон дат из раскрывающегося списка и нажав кнопку "Ввод!".

Внимание! Время в таблицах - всемирное. Для получения местного времени необходимо прибавить поправку, которая в Sibi равна 5 ч.

Смотрите также архив погоды в соседних городах и на ближайших метеорологических станциях:

Погода в Quetta Airport (Пакистан) (124 км)
Погода в Kalat (Пакистан) (139 км)
Погода в Jacobabad (Пакистан) (150 км)
Погода в Barkhan (Пакистан) (181 км)
Погода в Khuzdar (Пакистан) (227 км)
Погода в Rohri (Пакистан) (232 км)
Погода в Zhob (Пакистан) (252 км)
Погода в Khanpur (Пакистан) (290 км)
Погода в Pad Idan (Пакистан) (301 км)
Погода в Dal Bandin (Пакистан) (346 км)

Пояснения к столбцам:

Ветер - указаны скорость ветра в м/с - средняя за 10 мин, порывы в срок и между сроками (в фигурных скобках) и направление, откуда дует ветер: С - северный, СВ - северо-восточный, В - восточный, ЮВ - юго-восточный, Ю - южный, ЮЗ - юго-западный, З - западный, СЗ - северо-западный.
Видимость - горизонтальная дальность видимости в метрах или километрах. При видимости от 1 до 10 км при отсутствии осадков обычно наблюдается дымка, при ухудшении видимости до 1 км и менее - туман. В сухую погоду видимость может ухудшаться дымом, пылью или мглою.
Явления - указаны атмосферные явления, наблюдавшиеся в срок или в последний час перед сроком; фигурными скобками обозначены явления, наблюдавшиеся между сроками (за 1-3 часа до срока); квадратными скобками обозначены град или гололедные отложения с указанием их диаметра в мм.
Облачность - указаны через наклонную черту общая и нижняя облачность в баллах и высота нижней границы облаков в метрах; квадратными скобками обозначены формы облаков: Ci - перистые, Cs - перисто-слоистые, Cc - перисто-кучевые, Ac - высококучевые, As - высокослоистые, Sc - слоисто-кучевые, Ns - слоисто-дождевые, Cu - кучевые, Cb - кучево-дождевые. Подробнее классификацию облаков см. в Атласе облаков (PDF).
T - Температура воздуха - температура, измеренная на высоте 2 м над землей.
Td - Температура точки росы - температура, при понижении до которой содержащийся в воздухе водяной пар достигнет насыщения.
f - Относительная влажность воздуха - влажноcть воздуха, измеренная на высоте 2 м над землей.
Te - Эффективная температура - температура, которую ощущает одетый по сезону человек в тени. Характеристика душности погоды. При расчете учитывается влияние влажности воздуха и скорости ветра на теплоощущения человека.
Tes - Эффективная температура на солнце - температура, которую ощущает человек, с поправкой на солнечный нагрев. Характеристика знойности погоды. Зависит от высоты солнца над горизонтом, облачности и скорости ветра. Ночью, в пасмурную погоду, а также при ветре 12 м/с и более поправка равна нулю.
P - Атмосферное давление - приведенное к уровню моря атмосферное давление.
Po - Атмосферное давление - измеренное на уровне метеостанции атмосферное давление.
Tmin - Минимальная температура - минимум температуры воздуха на высоте 2 м над землей.
Tmax - Максимальная температура - максимум температуры воздуха на высоте 2 м над землей.
R - Количество осадков - Количество выпавших осадков за период времени, мм. При наведении курсора мыши на число - период времени, за который выпало указанное количество осадков.
R24 - Количество осадков - Количество выпавших осадков за 24 часа, мм.
S - Снежный покров - Высота снежного покрова, см. При наведении курсора мыши на число - состояние снежного покрова и степень покрытия местности в баллах.